TimeMST,TemperatureF,Dew PointF,Humidity,Sea Level PressureIn,VisibilityMPH,Wind Direction,Wind SpeedMPH,Gust SpeedMPH,PrecipitationIn,Events,Conditions,WindDirDegrees,DateUTC
12:15 AM,35.6,30.2,81,29.96,10.0,SW,3.5,-,N/A,,Overcast,230,2013-01-28 07:15:00
12:35 AM,33.8,28.4,81,29.96,10.0,Calm,Calm,-,N/A,,Overcast,0,2013-01-28 07:35:00
12:55 AM,35.6,30.2,81,29.96,10.0,Calm,Calm,-,N/A,,Overcast,0,2013-01-28 07:55:00
1:15 AM,35.6,30.2,81,29.95,10.0,Calm,Calm,-,N/A,,Overcast,0,2013-01-28 08:15:00
1:35 AM,33.8,30.2,87,29.95,10.0,NE,3.5,-,N/A,,Mostly Cloudy,50,2013-01-28 08:35:00
1:55 AM,35.6,32.0,87,29.94,10.0,Calm,Calm,-,N/A,,Mostly Cloudy,0,2013-01-28 08:55:00
2:15 AM,33.8,30.2,87,29.94,10.0,North,3.5,-,N/A,,Mostly Cloudy,350,2013-01-28 09:15:00
2:35 AM,33.8,30.2,87,29.94,10.0,North,3.5,-,N/A,,Mostly Cloudy,350,2013-01-28 09:35:00
2:55 AM,33.8,30.2,87,29.93,10.0,NW,4.6,-,N/A,,Overcast,320,2013-01-28 09:55:00
3:15 AM,33.8,30.2,87,29.93,10.0,Calm,Calm,-,N/A,,Overcast,0,2013-01-28 10:15:00
3:35 AM,33.8,30.2,87,29.93,10.0,Calm,Calm,-,N/A,,Overcast,0,2013-01-28 10:35:00
3:55 AM,33.8,30.2,87,29.92,10.0,Calm,Calm,-,N/A,,Mostly Cloudy,0,2013-01-28 10:55:00
4:15 AM,32.0,28.4,87,29.91,10.0,Calm,Calm,-,N/A,,Scattered Clouds,0,2013-01-28 11:15:00
4:35 AM,33.8,30.2,87,29.90,10.0,South,4.6,-,N/A,,Scattered Clouds,170,2013-01-28 11:35:00
4:55 AM,33.8,30.2,87,29.90,10.0,SSE,5.8,-,N/A,,Overcast,160,2013-01-28 11:55:00
5:15 AM,33.8,30.2,87,29.89,10.0,SE,3.5,-,N/A,,Overcast,140,2013-01-28 12:15:00
5:35 AM,32.0,30.2,93,29.88,10.0,SE,4.6,-,N/A,,Overcast,130,2013-01-28 12:35:00
5:55 AM,33.8,30.2,87,29.88,10.0,ESE,4.6,-,N/A,,Overcast,120,2013-01-28 12:55:00
6:15 AM,33.8,30.2,87,29.88,10.0,SSE,8.1,-,N/A,,Overcast,160,2013-01-28 13:15:00
6:35 AM,35.6,30.2,81,29.87,10.0,SSW,9.2,-,N/A,,Overcast,200,2013-01-28 13:35:00
6:55 AM,37.4,30.2,75,29.88,10.0,SW,10.4,-,N/A,,Overcast,230,2013-01-28 13:55:00
7:15 AM,37.4,32.0,81,29.87,10.0,WSW,10.4,-,N/A,,Overcast,240,2013-01-28 14:15:00
7:35 AM,37.4,30.2,75,29.87,10.0,SW,9.2,-,N/A,,Overcast,230,2013-01-28 14:35:00
7:55 AM,37.4,30.2,75,29.87,10.0,SW,12.7,-,N/A,,Overcast,220,2013-01-28 14:55:00
8:15 AM,39.2,30.2,70,29.86,10.0,SSW,13.8,-,N/A,,Overcast,210,2013-01-28 15:15:00
8:35 AM,39.2,30.2,70,29.86,10.0,SW,16.1,19.6,N/A,,Overcast,220,2013-01-28 15:35:00
8:55 AM,39.2,32.0,75,29.85,10.0,SW,17.3,24.2,N/A,,Overcast,220,2013-01-28 15:55:00
9:15 AM,41.0,33.8,76,29.85,10.0,SW,18.4,-,N/A,,Overcast,230,2013-01-28 16:15:00
9:35 AM,39.2,33.8,81,29.85,10.0,SW,16.1,-,N/A,,Overcast,230,2013-01-28 16:35:00
10:15 AM,42.8,33.8,70,29.84,10.0,SW,23.0,31.1,N/A,,Mostly Cloudy,230,2013-01-28 17:15:00
10:35 AM,42.8,32.0,66,29.84,10.0,SW,25.3,40.3,N/A,,Overcast,220,2013-01-28 17:35:00
10:55 AM,39.2,32.0,75,29.83,10.0,SW,23.0,33.4,N/A,,Overcast,230,2013-01-28 17:55:00
11:15 AM,41.0,32.0,70,29.82,10.0,SW,23.0,35.7,N/A,,Overcast,220,2013-01-28 18:15:00
11:35 AM,42.8,33.8,70,29.81,10.0,SW,28.8,38.0,N/A,,Overcast,220,2013-01-28 18:35:00
11:55 AM,42.8,32.0,66,29.80,10.0,SW,29.9,35.7,N/A,,Overcast,220,2013-01-28 18:55:00
12:15 PM,44.6,30.2,57,29.79,10.0,SW,25.3,36.8,N/A,,Overcast,220,2013-01-28 19:15:00
12:35 PM,42.8,30.2,61,29.78,10.0,SSW,21.9,31.1,N/A,,Overcast,210,2013-01-28 19:35:00
12:55 PM,42.8,30.2,61,29.76,10.0,SW,27.6,33.4,N/A,,Overcast,220,2013-01-28 19:55:00
1:15 PM,41.0,30.2,65,29.76,10.0,SW,28.8,32.2,N/A,,Overcast,220,2013-01-28 20:15:00
1:35 PM,35.6,28.4,75,29.77,2.5,West,13.8,28.8,0.01,,Overcast,280,2013-01-28 20:35:00
1:55 PM,35.6,33.8,93,29.77,10.0,West,15.0,20.7,0.02,,Mostly Cloudy,260,2013-01-28 20:55:00
2:15 PM,35.6,32.0,87,29.78,1.8,SW,12.7,-,0.03,,Overcast,230,2013-01-28 21:15:00
2:35 PM,35.6,32.0,87,29.78,2.0,West,12.7,20.7,0.04,,Overcast,280,2013-01-28 21:35:00
2:55 PM,33.8,30.2,87,29.78,5.0,WSW,13.8,20.7,0.05,,Mostly Cloudy,250,2013-01-28 21:55:00
3:15 PM,33.8,30.2,87,29.78,7.0,West,10.4,-,N/A,,Overcast,280,2013-01-28 22:15:00
3:35 PM,33.8,30.2,87,29.77,0.5,West,13.8,18.4,N/A,,Overcast,260,2013-01-28 22:35:00
3:55 PM,33.8,30.2,87,29.76,9.0,WSW,12.7,-,N/A,,Overcast,240,2013-01-28 22:55:00
4:15 PM,33.8,30.2,87,29.77,10.0,West,13.8,18.4,N/A,,Mostly Cloudy,260,2013-01-28 23:15:00
4:35 PM,33.8,32.0,93,29.78,10.0,West,9.2,-,N/A,,Overcast,260,2013-01-28 23:35:00
4:55 PM,33.8,30.2,87,29.78,10.0,SW,6.9,-,N/A,,Overcast,230,2013-01-28 23:55:00
5:15 PM,33.8,30.2,87,29.77,2.0,West,6.9,-,N/A,,Overcast,270,2013-01-29 00:15:00
5:35 PM,33.8,30.2,87,29.78,2.0,West,5.8,-,N/A,,Overcast,280,2013-01-29 00:35:00
5:55 PM,33.8,30.2,87,29.79,7.0,SW,4.6,-,N/A,,Overcast,230,2013-01-29 00:55:00
6:15 PM,33.8,30.2,87,29.80,1.2,SW,5.8,-,N/A,,Overcast,220,2013-01-29 01:15:00
6:35 PM,32.0,30.2,93,29.80,1.8,Calm,Calm,-,N/A,,Overcast,0,2013-01-29 01:35:00
6:55 PM,32.0,28.4,87,29.80,9.0,Calm,Calm,-,N/A,,Mostly Cloudy,0,2013-01-29 01:55:00
7:15 PM,32.0,28.4,87,29.80,10.0,SSW,5.8,-,N/A,,Overcast,200,2013-01-29 02:15:00
7:35 PM,32.0,28.4,87,29.81,5.0,South,3.5,-,N/A,,Overcast,190,2013-01-29 02:35:00
7:55 PM,32.0,26.6,80,29.81,7.0,West,4.6,-,N/A,,Overcast,260,2013-01-29 02:55:00
8:15 PM,30.2,26.6,86,29.80,5.0,SSW,4.6,-,N/A,,Overcast,200,2013-01-29 03:15:00
8:35 PM,30.2,26.6,86,29.80,10.0,SSW,4.6,-,N/A,,Mostly Cloudy,200,2013-01-29 03:35:00
8:55 PM,30.2,26.6,86,29.81,10.0,SSE,5.8,-,N/A,,Overcast,160,2013-01-29 03:55:00
9:15 PM,28.4,26.6,93,29.81,10.0,SSE,4.6,-,N/A,,Overcast,150,2013-01-29 04:15:00
9:35 PM,28.4,26.6,93,29.82,10.0,SE,4.6,-,N/A,,Overcast,140,2013-01-29 04:35:00
9:55 PM,28.4,24.8,86,29.80,10.0,Calm,Calm,-,N/A,,Overcast,0,2013-01-29 04:55:00
10:15 PM,28.4,24.8,86,29.80,10.0,West,4.6,-,N/A,,Overcast,270,2013-01-29 05:15:00
10:35 PM,28.4,24.8,86,29.80,10.0,SSW,5.8,-,N/A,,Overcast,200,2013-01-29 05:35:00
10:55 PM,28.4,24.8,86,29.80,10.0,South,6.9,-,N/A,,Overcast,180,2013-01-29 05:55:00
11:15 PM,28.4,24.8,86,29.80,10.0,SSE,5.8,-,N/A,,Overcast,160,2013-01-29 06:15:00
11:35 PM,28.4,23.0,80,29.79,9.0,South,5.8,-,N/A,,Overcast,180,2013-01-29 06:35:00
11:55 PM,28.4,23.0,80,29.78,9.0,SE,4.6,-,N/A,,Overcast,140,2013-01-29 06:55:00